Location: Unspecified
(38.7273°N, 77.0677°W)
Time: 09:28:45
(UTC-04:00)

Oscar 19 - Visible Passes

Search period start: 24 September 2021 00:00
Search period end: 04 October 2021 00:00
Orbit: 774 x 789 km, 98.8° (Epoch: 23 September)

Date Brightness Start Highest point End Pass type
(mag) Time Alt. Az. Time Alt. Az. Time Alt. Az.
24 Sep 12.7 03:29:31 10° NNE 03:32:01 24° NE 03:32:01 24° NE visible
24 Sep 11.8 05:09:01 10° N 05:12:33 26° NW 05:12:33 26° NW visible
25 Sep 13.4 02:58:44 10° NE 02:59:34 13° ENE 02:59:34 13° ENE visible
25 Sep 11.4 04:36:33 10° N 04:40:06 40° NNW 04:40:06 40° NNW visible
26 Sep 11.8 04:04:30 10° NNE 04:07:38 37° NNE 04:07:38 37° NNE visible
26 Sep 12.4 05:45:55 10° NNW 05:48:11 13° WNW 05:48:11 13° WNW visible
27 Sep 12.7 03:32:54 10° NNE 03:35:11 23° NE 03:35:11 23° NE visible
27 Sep 11.9 05:12:32 10° NNW 05:15:43 24° NW 05:15:43 24° NW visible
28 Sep 13.5 03:02:00 10° NE 03:02:43 12° ENE 03:02:43 12° ENE visible
28 Sep 11.6 04:40:01 10° N 04:43:15 35° NNW 04:43:15 35° NNW visible
29 Sep 12.0 04:07:56 10° NNE 04:10:47 34° NNE 04:10:47 34° NNE visible
29 Sep 12.5 05:49:37 10° NW 05:51:20 12° NW 05:51:20 12° NW visible
30 Sep 12.8 03:36:17 10° NNE 03:38:20 22° NE 03:38:20 22° NE visible
30 Sep 12.1 05:16:04 10° NNW 05:18:52 22° NW 05:18:52 22° NW visible
01 Oct 13.5 03:05:17 10° NE 03:05:52 12° NE 03:05:52 12° NE visible
01 Oct 11.8 04:43:30 10° N 04:46:24 31° NNW 04:46:24 31° NNW visible
02 Oct 12.1 04:11:22 10° NNE 04:13:56 30° NNE 04:13:56 30° NNE visible
02 Oct 12.6 05:53:24 10° NW 05:54:29 11° NW 05:54:29 11° NW visible
03 Oct 12.9 03:39:40 10° NNE 03:41:28 21° NE 03:41:28 21° NE visible
03 Oct 12.2 05:19:36 10° NNW 05:22:01 20° NW 05:22:01 20° NW visible
